Погода Макушино

Погода Макушино : погода сейчас, прогноз погоды и архив. Всё, что Вы хотите узнать о погоде Макушино!

Поиск расширенной информации на нашем сайте:

Другие новости

Новости СМИ2

Главная страница сайта

Новости сайта

03.07.2017

Напоминаем, что на нашем специализированном сайте Метеоцентр.Азия вы можете получить высокодетализированные автоматические прогнозы погоды по пунктам России, СНГ и мира в авиационном формате (включающие направление и скорость ветра, видимость, явления погоды, количество и форму облачности, нижнюю и верхнюю границу облачности).

Рекомендуем: юрист недвижимость в Москве

Погода Макушино - сегодня

Время (UTC), дата Ветер
(°,м/с) 
Видим.   Явления Облачность Т
(°С)
Тd
(°С)
f(%) Тe
(°С)
Pmin
(гПа)
dP
(гПа)
Po
(мм)
O2
(г/м3)
Тmin Tmax R s Состояние
почвы
00 21.05.18 230 (ЮЗ) 20000 м    4/3 1000 м кучево-дожд., верхняя 
[Cb cap|Ci fib]
+16 +6.6 54 +16  1011.6  0.8  746  283           
03 21.05.18 280 (З) 20000 м    3/0 верхняя 
[Ci fib]
+20 +9.1 49 +20  1012.6  1.2  747  279  +15.7        сухая 
12 21.05.18 330 (СЗ) 6{12}  20000 м    8/5 1000 м кучево-дожд., верхняя 
[Cb cap|Ci fib]
+19.6 +9.3 51 +20  1015  749  280           
18 21.05.18 010 (С) 20000 м    10/10 1000 м кучево-дожд. 
[Cb cap]
+11.5 +4.3 61 +11  1018.1  0.9  751  290           
21 21.05.18 350 (С) 20000 м    10/10 1000 м кучево-дожд. 
[Cb cap]
+9.1 +2.3 62 +8  1018.2  0.1  751  292           
00 22.05.18 320 (СЗ) 20000 м    10/10 1000 м кучево-дожд. 
[Cb cap]
+7.9 +2.7 70 +6  1018.7  0.4  751  294           
03 22.05.18 340 (С) 20000 м    10/10 1000 м кучево-дожд. 
[Cb cap]
+9.7 +3 63 +8  1018.4  0.4  751  292  +7.7        сухая 
06 22.05.18 310 (СЗ) 20000 м    3/3 1000 м 
[Cu hum]
+14.3 -1.1 35 +14  1016.4  -1.8  750  287           
15 22.05.18 350 (С) 5-10{19}  20000 м  {ливн. осадки}  9/9 1000 м кучево-дожд. 
[Cb cap]
+10.6 +4.1 64 +9  1012.6  2.6  747  289    +18.3  0.3     
18 22.05.18 330 (СЗ) 6{12}  20000 м  {ливн. осадки}  ясно 
+7.6 +2.1 68 +6  1015.2  2.4  749  293           
21 22.05.18 310 (СЗ) 4{10}  20000 м    3/3 1000 м кучево-дожд. 
[Cb cap]
+5.5 +0 68 +4  1017.4  750  296           
00 23.05.18 330 (СЗ) 20000 м    ясно 
+6.1 +0.5 67 +4  1020.4  752  296           
03 23.05.18 350 (С) 7-12{15}  20000 м    5/5 1000 м 
[Cu hum]
+9.1 -3.1 42 +7  1022.1  1.8  754  294  +4.8        сухая 
06 23.05.18 330 (СЗ) 8-15{15}  20000 м    ясно 
+12.9 -5.9 26 +11  1023  1.1  755  291           
09 23.05.18 330 (СЗ) 7-13{16}  20000 м    ясно 
+15.6 -7.2 20 +15  1023.1  0.3  755  288           
12 23.05.18 340 (С) 5-11{14}  20000 м    ясно 
+16.6 -7.7 18 +16  1023.1  0.1  755  287           
18 23.05.18 190 (Ю) 20000 м    ясно 
+8.6 -4.8 38 +9  1022.6  -0.8  754  295           
21 23.05.18 190 (Ю) 20000 м    10/10 1000 м 
[Sc]
+11 -3.7 35 +10  1020.4  -2  753  292           
00 24.05.18 180 (Ю) 20000 м  в посл. час ливневой дождь  10/10 600 м кучево-дожд. 
[Cb cap]
+10.1 +0.7 52 +9  1017.8  -2.7  751  292           
03 24.05.18 220 (ЮЗ) 6-10{11}  20000 м  {ливн. осадки}  10/10 1000 м кучево-дожд. 
[Cb cap]
+14.4 +1 40 +14  1013.9  -3.6  748  286  +8.1    0.5    влажная 
18 24.05.18 290 (З) 20000 м  {гроза, ливн. осадки}  3/3 1000 м кучево-дожд. 
[Cb cap]
+12.3 +8.9 80 +12  1009.6  0.4  745  286           
21 24.05.18 280 (З) 20000 м    4/0 верхняя 
[Ci fib]
+9.8 +7.7 87 +10  1009.9  0.2  745  288           
00 25.05.18 230 (ЮЗ) 4000 м  дымка  9/8 1000 м кучево-дожд., верхняя 
[Cb cap|Ci fib]
+9.7 +8.6 93 +11  1010.8  0.9  746  289           
03 25.05.18 050 (СВ) 20000 м  {ливн. осадки}  10/10 1000 м кучево-дожд. 
[Cb cap]
+12.9 +9.9 82 +14  1011  0.4  746  285  +7.9        влажная 
06 25.05.18 050 (СВ) 4000 м  слаб. ливневой дождь  10/10 1000 м кучево-дожд. 
[Cb cap]
+12.8 +9.7 81 +14  1010.2  -0.8  745  285           
Время (UTC), дата Ветер
(°,м/с) 
Видим.   Явления Облачность Т
(°С)
Тd
(°С)
f(%) Тe
(°С)
Pmin
(гПа)
dP
(гПа)
Po
(мм)
O2
(г/м3)
Тmin Tmax R s Состояние
почвы

Для получения пояснительной информации подведите курсор к названию столбца.

ПОГОДА Макушино - архив

Всё, что Вы хотите узнать о погоде Макушино - удобно и подробно!

Выберите нужную дату (начиная с 1 января 2015* года) и нажмите кнопку "Найти".
Будут отображены архивные сводки погоды по пункту Макушино, начиная с указанной даты.


Отображать данные в формате CSV (для использования в таблицах Excel)


Внимание! Наш архив погоды предназначен исключительно для личного некоммерческого использования в познавательных целях. Если Вам необходимы официальные справки о состоянии погоды (для производственных, юридических, коммерческих и т.п. целей), обращайтесь в органы Росгидромета.

*Примечание: данная дата относится к архиву по метеостанциям СССР (Россия, СНГ, Балтия).
Архив по метеостанциям Зарубежной Европы и Азии (кроме Китая) хранится 10 дней, по другим регионам земного шара (Китай, Африка, Америка, Австралия, Океания) - 1 день.

Макушино - район местоположения метеостанции


Название, широта, долгота, высота метеостанции:
Макушино 55.2°ш. 67.3°д. 140 м над ур. моря [Российская Федерация]

Дополнительная информация

В oтличие oт бoльшинства пoгoдных сайтoв мы публикуем пoдрoбную метеoинфoрмацию в детальнoм прoфессиoнальнoм фoрмате.

Характеристики температуры и влажнoсти вoздуха измеряются на высoте 2 м в тени вдали oт зданий и деревьев.
Скoрoсть ветра измеряется на высoте 10 м (на урoвне рoста челoвека скoрoсть ветра ниже в 1.5-2 раза). Если метеoстанция нахoдится в гoрoде или в лесу, тo скoрoсть ветра занижена на 2-4 м/с пo сравнению с oткрытым местoм. Скoрoсть ветра над акватoриями крупных рек и oзёр, а также на вершинах хoлмoв на 2-5 м/с выше, чем в oбычных услoвиях.
Атмoсфернoе давление в разных тoчках местнoсти мoжет значительнo oтличаться oт давления на метеoстанции, в зависимoсти oт услoвий рельефа (при пoдъёме на 10 м давление пoнижается примернo на 1 мм рт.ст.).